Time,TemperatureF,DewpointF,PressureIn,WindDirection,WindDirectionDegrees,WindSpeedMPH,WindSpeedGustMPH,Humidity,HourlyPrecipIn,Conditions,Clouds,dailyrainin,SoftwareType,DateUTC
2013-06-20 00:01:00,76.3,73.8,30.08,North,0,1.0,2.0,92,0.00,,,0.00,meteohub,2013-06-20 04:01:00,
2013-06-20 00:02:00,76.3,73.8,30.09,North,0,1.0,2.0,92,0.00,,,0.00,meteohub,2013-06-20 04:02:00,
2013-06-20 00:06:00,76.3,73.8,30.08,North,0,1.0,2.0,92,0.00,,,0.00,meteohub,2013-06-20 04:06:00,
2013-06-20 00:07:00,76.1,73.6,30.08,North,0,0.0,2.0,92,0.00,,,0.00,meteohub,2013-06-20 04:07:00,
2013-06-20 00:13:00,76.1,73.9,30.08,NE,45,2.0,2.0,93,0.00,,,0.00,meteohub,2013-06-20 04:13:00,
2013-06-20 00:18:00,76.3,74.1,30.08,North,0,1.0,3.0,93,0.00,,,0.00,meteohub,2013-06-20 04:18:00,
2013-06-20 00:23:00,76.3,74.1,30.08,North,0,2.0,3.0,93,0.00,,,0.00,meteohub,2013-06-20 04:23:00,
2013-06-20 00:28:00,76.3,74.1,30.08,North,0,1.0,3.0,93,0.00,,,0.00,meteohub,2013-06-20 04:28:00,
2013-06-20 00:33:00,76.3,74.5,30.08,North,0,1.0,2.0,94,0.00,,,0.00,meteohub,2013-06-20 04:33:00,
2013-06-20 00:38:00,76.1,74.3,30.08,North,0,2.0,3.0,94,0.00,,,0.00,meteohub,2013-06-20 04:38:00,
2013-06-20 00:44:00,76.3,74.5,30.08,NE,45,2.0,3.0,94,0.00,,,0.00,meteohub,2013-06-20 04:44:00,
2013-06-20 00:49:00,76.1,74.3,30.08,East,90,4.0,4.0,94,0.00,,,0.00,meteohub,2013-06-20 04:49:00,
2013-06-20 00:54:00,76.1,74.3,30.08,East,90,2.0,4.0,94,0.00,,,0.00,meteohub,2013-06-20 04:54:00,
2013-06-20 00:59:00,75.9,74.1,30.08,NE,45,2.0,4.0,94,0.00,,,0.00,meteohub,2013-06-20 04:59:00,
2013-06-20 01:04:00,75.9,74.1,30.07,North,0,2.0,4.0,94,0.00,,,0.00,meteohub,2013-06-20 05:04:00,
2013-06-20 01:09:00,75.7,74.1,30.08,North,0,2.0,2.0,95,0.00,,,0.00,meteohub,2013-06-20 05:09:00,
2013-06-20 01:14:00,75.7,74.1,30.08,NNE,23,2.0,2.0,95,0.00,,,0.00,meteohub,2013-06-20 05:14:00,
2013-06-20 01:20:00,75.7,74.1,30.08,NW,315,1.0,2.0,95,0.00,,,0.00,meteohub,2013-06-20 05:20:00,
2013-06-20 01:25:00,75.7,74.1,30.08,North,0,0.0,3.0,95,0.00,,,0.00,meteohub,2013-06-20 05:25:00,
2013-06-20 01:30:00,75.7,74.1,30.08,NE,45,1.0,3.0,95,0.00,,,0.00,meteohub,2013-06-20 05:30:00,
2013-06-20 01:35:00,75.7,74.1,30.08,NE,45,1.0,3.0,95,0.00,,,0.00,meteohub,2013-06-20 05:35:00,
2013-06-20 01:40:00,75.6,73.9,30.07,NE,45,0.0,3.0,95,0.00,,,0.00,meteohub,2013-06-20 05:40:00,
2013-06-20 01:45:00,75.4,73.8,30.07,NE,45,0.0,2.0,95,0.00,,,0.00,meteohub,2013-06-20 05:45:00,
2013-06-20 01:50:00,75.0,73.8,30.08,NE,45,0.0,1.0,96,0.00,,,0.00,meteohub,2013-06-20 05:50:00,
2013-06-20 01:56:00,74.8,73.6,30.08,NE,45,0.0,1.0,96,0.00,,,0.00,meteohub,2013-06-20 05:56:00,
2013-06-20 02:01:00,74.8,73.6,30.08,West,270,0.0,1.0,96,0.00,,,0.00,meteohub,2013-06-20 06:01:00,
2013-06-20 02:06:00,74.8,73.9,30.08,West,270,0.0,1.0,97,0.00,,,0.00,meteohub,2013-06-20 06:06:00,
2013-06-20 02:11:00,74.8,73.9,30.08,NNW,338,0.0,1.0,97,0.00,,,0.00,meteohub,2013-06-20 06:11:00,
2013-06-20 02:16:00,74.8,73.9,30.08,NW,315,1.0,1.0,97,0.00,,,0.00,meteohub,2013-06-20 06:16:00,
2013-06-20 02:21:00,75.0,74.1,30.07,NW,315,0.0,2.0,97,0.00,,,0.00,meteohub,2013-06-20 06:21:00,
2013-06-20 02:27:00,74.8,74.3,30.07,NW,315,2.0,2.0,98,0.00,,,0.00,meteohub,2013-06-20 06:27:00,
2013-06-20 02:32:00,74.8,74.3,30.07,West,270,1.0,2.0,98,0.00,,,0.00,meteohub,2013-06-20 06:32:00,
2013-06-20 02:37:00,75.2,73.9,30.07,NE,45,0.0,2.0,96,0.00,,,0.00,meteohub,2013-06-20 06:37:00,
2013-06-20 02:42:00,75.2,73.9,30.07,NE,45,0.0,2.0,96,0.00,,,0.00,meteohub,2013-06-20 06:42:00,
2013-06-20 02:47:00,75.2,73.9,30.07,South,180,0.0,2.0,96,0.00,,,0.00,meteohub,2013-06-20 06:47:00,
2013-06-20 02:52:00,75.2,73.6,30.07,East,90,0.0,2.0,95,0.00,,,0.00,meteohub,2013-06-20 06:52:00,
2013-06-20 02:57:00,75.0,73.8,30.07,North,0,0.0,1.0,96,0.00,,,0.00,meteohub,2013-06-20 06:57:00,
2013-06-20 03:02:00,75.0,73.8,30.06,North,0,0.0,2.0,96,0.00,,,0.00,meteohub,2013-06-20 07:02:00,
2013-06-20 03:07:00,75.0,73.8,30.06,North,0,2.0,2.0,96,0.00,,,0.00,meteohub,2013-06-20 07:07:00,
2013-06-20 03:12:00,75.0,73.4,30.06,North,0,0.0,2.0,95,0.00,,,0.00,meteohub,2013-06-20 07:12:00,
2013-06-20 03:17:00,75.2,73.4,30.06,North,0,1.0,2.0,94,0.00,,,0.00,meteohub,2013-06-20 07:17:00,
2013-06-20 03:22:00,75.2,73.4,30.06,NE,45,2.0,2.0,94,0.00,,,0.00,meteohub,2013-06-20 07:22:00,
2013-06-20 03:27:00,75.4,73.6,30.06,NE,45,2.0,2.0,94,0.00,,,0.00,meteohub,2013-06-20 07:27:00,
2013-06-20 03:32:00,75.4,73.6,30.06,NE,45,0.0,2.0,94,0.00,,,0.00,meteohub,2013-06-20 07:32:00,
2013-06-20 03:37:00,75.2,73.4,30.06,West,270,1.0,2.0,94,0.00,,,0.00,meteohub,2013-06-20 07:37:00,
2013-06-20 03:42:00,75.2,73.4,30.06,West,270,2.0,2.0,94,0.00,,,0.00,meteohub,2013-06-20 07:42:00,
2013-06-20 03:47:00,75.2,73.4,30.06,NE,45,1.0,3.0,94,0.00,,,0.00,meteohub,2013-06-20 07:47:00,
2013-06-20 03:52:00,75.4,73.6,30.06,North,0,1.0,3.0,94,0.00,,,0.00,meteohub,2013-06-20 07:52:00,
2013-06-20 03:57:00,75.4,73.6,30.06,West,270,0.0,2.0,94,0.00,,,0.00,meteohub,2013-06-20 07:57:00,
2013-06-20 04:02:00,75.4,73.6,30.06,West,270,0.0,2.0,94,0.00,,,0.00,meteohub,2013-06-20 08:02:00,
2013-06-20 04:07:00,75.4,73.6,30.06,West,270,0.0,2.0,94,0.00,,,0.00,meteohub,2013-06-20 08:07:00,
2013-06-20 04:12:00,75.0,73.4,30.06,West,270,0.0,1.0,95,0.00,,,0.00,meteohub,2013-06-20 08:12:00,
2013-06-20 04:17:00,74.8,73.6,30.06,West,270,0.0,1.0,96,0.00,,,0.00,meteohub,2013-06-20 08:17:00,
2013-06-20 04:22:00,74.8,73.9,30.06,NW,315,0.0,1.0,97,0.00,,,0.00,meteohub,2013-06-20 08:22:00,
2013-06-20 04:27:00,74.8,73.9,30.06,West,270,0.0,1.0,97,0.00,,,0.00,meteohub,2013-06-20 08:27:00,
2013-06-20 04:32:00,74.7,73.8,30.06,North,0,1.0,1.0,97,0.00,,,0.00,meteohub,2013-06-20 08:32:00,
2013-06-20 04:37:00,74.8,73.6,30.06,West,270,0.0,2.0,96,0.00,,,0.00,meteohub,2013-06-20 08:37:00,
2013-06-20 04:42:00,74.7,73.4,30.06,North,0,2.0,2.0,96,0.00,,,0.00,meteohub,2013-06-20 08:42:00,
2013-06-20 04:47:00,74.8,73.6,30.06,NE,45,0.0,3.0,96,0.00,,,0.00,meteohub,2013-06-20 08:47:00,
2013-06-20 04:52:00,74.8,73.6,30.06,North,0,2.0,3.0,96,0.00,,,0.00,meteohub,2013-06-20 08:52:00,
2013-06-20 04:57:00,74.8,73.6,30.06,North,0,2.0,3.0,96,0.00,,,0.00,meteohub,2013-06-20 08:57:00,
2013-06-20 05:02:00,74.8,73.6,30.06,North,0,1.0,2.0,96,0.00,,,0.00,meteohub,2013-06-20 09:02:00,
2013-06-20 05:07:00,75.0,73.8,30.06,North,0,0.0,2.0,96,0.00,,,0.00,meteohub,2013-06-20 09:07:00,
2013-06-20 05:12:00,75.0,73.8,30.06,North,0,0.0,2.0,96,0.00,,,0.00,meteohub,2013-06-20 09:12:00,
2013-06-20 05:17:00,75.0,73.8,30.06,North,0,0.0,2.0,96,0.00,,,0.00,meteohub,2013-06-20 09:17:00,
2013-06-20 05:22:00,74.8,73.6,30.06,North,0,1.0,0.0,96,0.00,,,0.00,meteohub,2013-06-20 09:22:00,
2013-06-20 05:27:00,74.8,73.6,30.06,East,90,2.0,2.0,96,0.00,,,0.00,meteohub,2013-06-20 09:27:00,
2013-06-20 05:32:00,75.0,73.8,30.06,East,90,1.0,2.0,96,0.00,,,0.00,meteohub,2013-06-20 09:32:00,
2013-06-20 05:37:00,74.8,73.6,30.06,NE,45,0.0,2.0,96,0.00,,,0.00,meteohub,2013-06-20 09:37:00,
2013-06-20 05:42:00,74.8,73.6,30.06,NW,315,1.0,2.0,96,0.00,,,0.00,meteohub,2013-06-20 09:42:00,
2013-06-20 05:47:00,74.8,73.6,30.06,North,0,0.0,2.0,96,0.00,,,0.00,meteohub,2013-06-20 09:47:00,
2013-06-20 05:52:00,74.7,73.4,30.06,North,0,0.0,2.0,96,0.00,,,0.00,meteohub,2013-06-20 09:52:00,
2013-06-20 05:57:00,74.5,73.2,30.06,NE,45,0.0,2.0,96,0.00,,,0.00,meteohub,2013-06-20 09:57:00,
2013-06-20 06:02:00,74.5,73.2,30.07,NW,315,0.0,2.0,96,0.00,,,0.00,meteohub,2013-06-20 10:02:00,
2013-06-20 06:07:00,74.5,73.2,30.06,NW,315,0.0,2.0,96,0.00,,,0.00,meteohub,2013-06-20 10:07:00,
2013-06-20 06:12:00,74.3,73.4,30.07,North,0,2.0,0.0,97,0.00,,,0.00,meteohub,2013-06-20 10:12:00,
2013-06-20 06:17:00,74.3,73.4,30.07,West,270,1.0,4.0,97,0.00,,,0.00,meteohub,2013-06-20 10:17:00,
2013-06-20 06:22:00,74.5,73.2,30.07,North,0,0.0,4.0,96,0.00,,,0.00,meteohub,2013-06-20 10:22:00,
2013-06-20 06:27:00,74.5,73.2,30.07,NE,45,1.0,4.0,96,0.00,,,0.00,meteohub,2013-06-20 10:27:00,
2013-06-20 06:32:00,74.5,73.2,30.07,NW,315,1.0,2.0,96,0.00,,,0.00,meteohub,2013-06-20 10:32:00,
2013-06-20 06:37:00,74.5,73.2,30.07,SW,225,0.0,1.0,96,0.00,,,0.00,meteohub,2013-06-20 10:37:00,
2013-06-20 06:42:00,74.7,73.4,30.07,North,0,1.0,2.0,96,0.00,,,0.00,meteohub,2013-06-20 10:42:00,
2013-06-20 06:47:00,74.7,73.4,30.07,North,0,0.0,2.0,96,0.00,,,0.00,meteohub,2013-06-20 10:47:00,
2013-06-20 06:52:00,74.8,73.6,30.08,East,90,3.0,3.0,96,0.00,,,0.00,meteohub,2013-06-20 10:52:00,
2013-06-20 06:57:00,75.4,73.6,30.07,NE,45,3.0,3.0,94,0.00,,,0.00,meteohub,2013-06-20 10:57:00,
2013-06-20 07:02:00,75.9,74.1,30.07,North,0,2.0,4.0,94,0.00,,,0.00,meteohub,2013-06-20 11:02:00,
2013-06-20 07:07:00,76.1,74.3,30.08,North,0,1.0,4.0,94,0.00,,,0.00,meteohub,2013-06-20 11:07:00,
2013-06-20 07:12:00,76.1,73.9,30.08,NE,45,2.0,4.0,93,0.00,,,0.00,meteohub,2013-06-20 11:12:00,
2013-06-20 07:17:00,76.3,74.1,30.08,North,0,0.0,4.0,93,0.00,,,0.00,meteohub,2013-06-20 11:17:00,
2013-06-20 07:22:00,76.5,74.3,30.08,North,0,2.0,2.0,93,0.00,,,0.00,meteohub,2013-06-20 11:22:00,
2013-06-20 07:27:00,76.8,74.7,30.08,North,0,2.0,4.0,93,0.00,,,0.00,meteohub,2013-06-20 11:27:00,
2013-06-20 07:32:00,77.2,74.7,30.08,NE,45,2.0,4.0,92,0.00,,,0.00,meteohub,2013-06-20 11:32:00,
2013-06-20 07:37:00,77.5,74.7,30.09,North,0,4.0,4.0,91,0.00,,,0.00,meteohub,2013-06-20 11:37:00,
2013-06-20 07:42:00,77.9,75.0,30.09,NE,45,3.0,4.0,91,0.00,,,0.00,meteohub,2013-06-20 11:42:00,
2013-06-20 07:47:00,78.1,74.8,30.09,East,90,3.0,4.0,90,0.00,,,0.00,meteohub,2013-06-20 11:47:00,
2013-06-20 07:52:00,78.4,75.2,30.09,NE,45,2.0,4.0,90,0.00,,,0.00,meteohub,2013-06-20 11:52:00,
2013-06-20 07:57:00,78.8,75.6,30.09,North,0,2.0,4.0,90,0.00,,,0.00,meteohub,2013-06-20 11:57:00,
2013-06-20 08:02:00,79.2,75.6,30.09,North,0,1.0,4.0,89,0.00,,,0.00,meteohub,2013-06-20 12:02:00,
2013-06-20 08:07:00,79.9,75.9,30.09,NNW,338,2.0,3.0,88,0.00,,,0.00,meteohub,2013-06-20 12:07:00,
2013-06-20 08:12:00,80.2,76.3,30.09,North,0,2.0,4.0,88,0.00,,,0.00,meteohub,2013-06-20 12:12:00,
2013-06-20 08:17:00,80.6,76.1,30.09,North,0,3.0,4.0,86,0.00,,,0.00,meteohub,2013-06-20 12:17:00,
2013-06-20 08:22:00,81.3,76.6,30.09,North,0,2.0,4.0,86,0.00,,,0.00,meteohub,2013-06-20 12:22:00,
2013-06-20 08:27:00,82.0,77.0,30.09,NE,45,3.0,4.0,85,0.00,,,0.00,meteohub,2013-06-20 12:27:00,
2013-06-20 08:32:00,82.6,77.5,30.09,SE,135,2.0,3.0,85,0.00,,,0.00,meteohub,2013-06-20 12:32:00,
2013-06-20 08:37:00,83.7,78.3,30.09,NE,45,4.0,4.0,84,0.00,,,0.00,meteohub,2013-06-20 12:37:00,
2013-06-20 08:42:00,84.2,78.1,30.09,North,0,3.0,4.0,82,0.00,,,0.00,meteohub,2013-06-20 12:42:00,
2013-06-20 08:47:00,84.9,78.4,30.10,NE,45,2.0,4.0,81,0.00,,,0.00,meteohub,2013-06-20 12:47:00,
2013-06-20 08:52:00,85.3,78.4,30.09,North,0,4.0,4.0,80,0.00,,,0.00,meteohub,2013-06-20 12:52:00,
2013-06-20 08:57:00,86.2,78.4,30.10,NW,315,3.0,4.0,78,0.00,,,0.00,meteohub,2013-06-20 12:57:00,
2013-06-20 09:02:00,86.9,78.4,30.09,North,0,3.0,4.0,76,0.00,,,0.00,meteohub,2013-06-20 13:02:00,
2013-06-20 09:07:00,87.4,79.0,30.10,ESE,113,3.0,4.0,76,0.00,,,0.00,meteohub,2013-06-20 13:07:00,
2013-06-20 09:12:00,88.0,78.6,30.09,North,0,2.0,4.0,74,0.00,,,0.00,meteohub,2013-06-20 13:12:00,
2013-06-20 09:17:00,88.3,79.0,30.10,North,0,3.0,5.0,74,0.00,,,0.00,meteohub,2013-06-20 13:17:00,
2013-06-20 09:22:00,88.7,78.4,30.10,NW,315,2.0,5.0,72,0.00,,,0.00,meteohub,2013-06-20 13:22:00,
2013-06-20 09:27:00,89.2,78.1,30.09,North,0,2.0,5.0,70,0.00,,,0.00,meteohub,2013-06-20 13:27:00,
2013-06-20 09:32:00,89.8,78.3,30.09,NW,315,2.0,5.0,69,0.00,,,0.00,meteohub,2013-06-20 13:32:00,
2013-06-20 09:37:00,90.0,77.9,30.10,NE,45,4.0,5.0,68,0.00,,,0.00,meteohub,2013-06-20 13:37:00,
2013-06-20 09:42:00,90.1,77.7,30.10,ENE,68,2.0,4.0,67,0.00,,,0.00,meteohub,2013-06-20 13:42:00,
2013-06-20 09:47:00,90.5,77.5,30.10,North,0,4.0,4.0,66,0.00,,,0.00,meteohub,2013-06-20 13:47:00,
2013-06-20 09:52:00,91.0,77.5,30.10,NE,45,3.0,4.0,65,0.00,,,0.00,meteohub,2013-06-20 13:52:00,
2013-06-20 09:57:00,91.6,78.1,30.10,East,90,0.0,4.0,65,0.00,,,0.00,meteohub,2013-06-20 13:57:00,
2013-06-20 10:02:00,93.2,78.3,30.10,NE,45,2.0,4.0,62,0.00,,,0.00,meteohub,2013-06-20 14:02:00,
2013-06-20 10:07:00,95.0,77.9,30.10,East,90,2.0,4.0,58,0.00,,,0.00,meteohub,2013-06-20 14:07:00,
2013-06-20 10:12:00,95.4,76.6,30.10,East,90,4.0,4.0,55,0.00,,,0.00,meteohub,2013-06-20 14:12:00,
2013-06-20 10:17:00,93.4,76.8,30.11,ENE,68,2.0,5.0,59,0.00,,,0.00,meteohub,2013-06-20 14:17:00,
2013-06-20 10:22:00,92.1,77.2,30.11,NE,45,4.0,5.0,62,0.00,,,0.00,meteohub,2013-06-20 14:22:00,
2013-06-20 10:27:00,91.6,78.1,30.10,SE,135,1.0,5.0,65,0.00,,,0.00,meteohub,2013-06-20 14:27:00,
2013-06-20 10:32:00,93.2,77.2,30.10,NE,45,3.0,4.0,60,0.00,,,0.00,meteohub,2013-06-20 14:32:00,
2013-06-20 10:37:00,95.5,76.3,30.11,NE,45,4.0,4.0,54,0.00,,,0.00,meteohub,2013-06-20 14:37:00,
2013-06-20 10:42:00,96.4,76.5,30.10,NW,315,2.0,4.0,53,0.00,,,0.00,meteohub,2013-06-20 14:42:00,
2013-06-20 10:47:00,98.8,76.8,30.11,West,270,2.0,4.0,50,0.00,,,0.00,meteohub,2013-06-20 14:47:00,
2013-06-20 10:52:00,99.1,74.7,30.11,NW,315,3.0,4.0,46,0.00,,,0.00,meteohub,2013-06-20 14:52:00,
2013-06-20 10:57:00,98.6,76.1,30.11,North,0,2.0,4.0,49,0.00,,,0.00,meteohub,2013-06-20 14:57:00,
2013-06-20 11:02:00,98.8,76.3,30.11,NE,45,4.0,4.0,49,0.00,,,0.00,meteohub,2013-06-20 15:02:00,
2013-06-20 11:07:00,98.8,74.3,30.11,SW,225,3.0,5.0,46,0.00,,,0.00,meteohub,2013-06-20 15:07:00,
2013-06-20 11:12:00,98.1,75.6,30.11,SW,225,3.0,5.0,49,0.00,,,0.00,meteohub,2013-06-20 15:12:00,
2013-06-20 11:17:00,95.9,75.9,30.11,South,180,2.0,4.0,53,0.00,,,0.00,meteohub,2013-06-20 15:17:00,
2013-06-20 11:22:00,94.3,75.6,30.11,South,180,2.0,4.0,55,0.00,,,0.00,meteohub,2013-06-20 15:22:00,
2013-06-20 11:27:00,94.3,76.1,30.11,South,180,4.0,4.0,56,0.00,,,0.00,meteohub,2013-06-20 15:27:00,
2013-06-20 11:32:00,94.6,74.8,30.11,NE,45,2.0,4.0,53,0.00,,,0.00,meteohub,2013-06-20 15:32:00,
2013-06-20 11:37:00,93.7,73.9,30.11,SE,135,3.0,4.0,53,0.00,,,0.00,meteohub,2013-06-20 15:37:00,
2013-06-20 11:42:00,92.7,74.7,30.11,East,90,0.0,4.0,56,0.00,,,0.00,meteohub,2013-06-20 15:42:00,
2013-06-20 11:47:00,92.8,75.4,30.11,NE,45,2.0,4.0,57,0.00,,,0.00,meteohub,2013-06-20 15:47:00,
2013-06-20 11:52:00,92.7,74.1,30.11,East,90,0.0,4.0,55,0.00,,,0.00,meteohub,2013-06-20 15:52:00,
2013-06-20 11:57:00,92.3,73.8,30.11,NE,45,0.0,2.0,55,0.00,,,0.00,meteohub,2013-06-20 15:57:00,
2013-06-20 12:02:00,93.0,76.6,30.11,SW,225,0.0,2.0,59,0.00,,,0.00,meteohub,2013-06-20 16:02:00,
2013-06-20 12:07:00,94.1,77.0,30.11,SE,135,2.0,2.0,58,0.00,,,0.00,meteohub,2013-06-20 16:07:00,
2013-06-20 12:12:00,93.7,74.7,30.11,SW,225,4.0,4.0,54,0.00,,,0.00,meteohub,2013-06-20 16:12:00,
2013-06-20 12:17:00,91.8,75.4,30.11,NE,45,4.0,5.0,59,0.00,,,0.00,meteohub,2013-06-20 16:17:00,
2013-06-20 12:22:00,90.9,77.0,30.11,East,90,4.0,5.0,64,0.00,,,0.00,meteohub,2013-06-20 16:22:00,
2013-06-20 12:27:00,90.9,77.5,30.11,South,180,2.0,5.0,65,0.00,,,0.00,meteohub,2013-06-20 16:27:00,
2013-06-20 12:32:00,91.4,77.9,30.11,SW,225,3.0,5.0,65,0.00,,,0.00,meteohub,2013-06-20 16:32:00,
2013-06-20 12:37:00,90.5,77.2,30.10,South,180,4.0,5.0,65,0.00,,,0.00,meteohub,2013-06-20 16:37:00,
2013-06-20 12:42:00,89.6,76.6,30.11,East,90,3.0,5.0,66,0.00,,,0.00,meteohub,2013-06-20 16:42:00,
2013-06-20 12:47:00,87.4,75.9,30.12,SE,135,7.0,9.0,69,0.00,,,0.00,meteohub,2013-06-20 16:47:00,
2013-06-20 12:52:00,84.6,76.5,30.13,South,180,4.0,10.0,77,0.00,,,0.00,meteohub,2013-06-20 16:52:00,
2013-06-20 12:57:00,79.5,75.9,30.13,SE,135,4.0,11.0,89,0.13,,,0.13,meteohub,2013-06-20 16:57:00,
2013-06-20 13:02:00,77.5,75.7,30.13,South,180,4.0,11.0,94,0.35,,,0.35,meteohub,2013-06-20 17:02:00,
2013-06-20 13:07:00,76.5,75.9,30.14,SE,135,8.0,8.0,98,0.45,,,0.45,meteohub,2013-06-20 17:07:00,
2013-06-20 13:12:00,74.3,73.8,30.13,South,180,8.0,12.0,98,0.67,,,0.67,meteohub,2013-06-20 17:12:00,
2013-06-20 13:17:00,73.8,73.2,30.13,SW,225,4.0,12.0,98,0.69,,,0.69,meteohub,2013-06-20 17:17:00,
2013-06-20 13:22:00,74.1,73.8,30.13,WNW,293,3.0,12.0,99,0.70,,,0.70,meteohub,2013-06-20 17:22:00,
2013-06-20 13:27:00,74.1,73.8,30.12,West,270,0.0,10.0,99,0.72,,,0.72,meteohub,2013-06-20 17:27:00,
2013-06-20 13:32:00,74.5,74.1,30.13,West,270,0.0,7.0,99,0.72,,,0.72,meteohub,2013-06-20 17:32:00,
2013-06-20 13:37:00,74.7,74.3,30.13,SW,225,0.0,4.0,99,0.72,,,0.72,meteohub,2013-06-20 17:37:00,
2013-06-20 13:42:00,75.0,74.7,30.13,SE,135,1.0,4.0,99,0.72,,,0.72,meteohub,2013-06-20 17:42:00,
2013-06-20 13:47:00,75.0,74.7,30.12,West,270,2.0,4.0,99,0.72,,,0.72,meteohub,2013-06-20 17:47:00,
2013-06-20 13:52:00,74.8,74.5,30.12,SW,225,0.0,4.0,99,0.65,,,0.72,meteohub,2013-06-20 17:52:00,
2013-06-20 13:57:00,74.5,74.1,30.12,South,180,0.0,3.0,99,0.53,,,0.72,meteohub,2013-06-20 17:57:00,
2013-06-20 14:02:00,74.1,73.8,30.12,SW,225,2.0,3.0,99,0.35,,,0.72,meteohub,2013-06-20 18:02:00,
2013-06-20 14:07:00,73.6,73.2,30.12,West,270,0.0,3.0,99,0.15,,,0.72,meteohub,2013-06-20 18:07:00,
2013-06-20 14:12:00,73.6,73.2,30.12,South,180,0.0,3.0,99,0.04,,,0.72,meteohub,2013-06-20 18:12:00,
2013-06-20 14:18:00,73.8,73.4,30.11,West,270,2.0,2.0,99,0.04,,,0.72,meteohub,2013-06-20 18:18:00,
2013-06-20 14:23:00,73.6,73.2,30.11,West,270,0.0,2.0,99,0.01,,,0.72,meteohub,2013-06-20 18:23:00,
2013-06-20 14:28:00,73.6,73.2,30.10,West,270,0.0,2.0,99,0.00,,,0.72,meteohub,2013-06-20 18:28:00,
2013-06-20 14:33:00,73.8,73.4,30.10,West,270,0.0,2.0,99,0.00,,,0.72,meteohub,2013-06-20 18:33:00,
2013-06-20 14:38:00,74.3,73.9,30.10,West,270,0.0,1.0,99,0.00,,,0.72,meteohub,2013-06-20 18:38:00,
2013-06-20 14:43:00,74.7,74.3,30.10,West,270,0.0,1.0,99,0.00,,,0.72,meteohub,2013-06-20 18:43:00,
2013-06-20 14:48:00,75.2,74.8,30.10,West,270,0.0,1.0,99,0.00,,,0.72,meteohub,2013-06-20 18:48:00,
2013-06-20 14:53:00,75.6,75.2,30.10,West,270,0.0,1.0,99,0.00,,,0.72,meteohub,2013-06-20 18:53:00,
2013-06-20 14:59:00,75.9,75.6,30.10,West,270,0.0,0.0,99,0.00,,,0.72,meteohub,2013-06-20 18:59:00,
2013-06-20 15:04:00,76.1,75.7,30.10,West,270,0.0,0.0,99,0.00,,,0.72,meteohub,2013-06-20 19:04:00,
2013-06-20 15:09:00,76.8,76.5,30.10,West,270,0.0,0.0,99,0.00,,,0.72,meteohub,2013-06-20 19:09:00,
2013-06-20 15:14:00,77.0,76.6,30.10,NE,45,0.0,1.0,99,0.00,,,0.72,meteohub,2013-06-20 19:14:00,
2013-06-20 15:19:00,77.4,77.0,30.10,NE,45,0.0,1.0,99,0.00,,,0.72,meteohub,2013-06-20 19:19:00,
2013-06-20 15:24:00,77.9,77.5,30.10,NE,45,0.0,1.0,99,0.00,,,0.72,meteohub,2013-06-20 19:24:00,
2013-06-20 15:29:00,78.8,78.3,30.09,NE,45,0.0,0.0,98,0.00,,,0.72,meteohub,2013-06-20 19:29:00,
2013-06-20 15:34:00,79.5,79.0,30.09,NE,45,0.0,0.0,98,0.00,,,0.72,meteohub,2013-06-20 19:34:00,
2013-06-20 15:40:00,79.9,79.3,30.09,NE,45,0.0,0.0,98,0.00,,,0.72,meteohub,2013-06-20 19:40:00,
2013-06-20 15:45:00,80.8,79.5,30.09,West,270,1.0,0.0,96,0.00,,,0.72,meteohub,2013-06-20 19:45:00,
2013-06-20 15:50:00,81.9,80.2,30.09,West,270,0.0,1.0,95,0.00,,,0.72,meteohub,2013-06-20 19:50:00,
2013-06-20 15:55:00,82.8,81.1,30.08,West,270,0.0,1.0,95,0.00,,,0.72,meteohub,2013-06-20 19:55:00,
2013-06-20 16:00:00,83.1,79.9,30.08,NE,45,0.0,2.0,90,0.00,,,0.72,meteohub,2013-06-20 20:00:00,
2013-06-20 16:05:00,84.2,80.2,30.09,West,270,2.0,2.0,88,0.00,,,0.72,meteohub,2013-06-20 20:05:00,
2013-06-20 16:10:00,84.7,80.1,30.08,NW,315,7.0,7.0,86,0.00,,,0.72,meteohub,2013-06-20 20:10:00,
2013-06-20 16:15:00,84.7,79.3,30.08,West,270,2.0,7.0,84,0.00,,,0.72,meteohub,2013-06-20 20:15:00,
2013-06-20 16:21:00,84.9,78.8,30.08,NW,315,2.0,7.0,82,0.00,,,0.72,meteohub,2013-06-20 20:21:00,
2013-06-20 16:26:00,85.8,79.7,30.08,North,0,2.0,7.0,82,0.00,,,0.72,meteohub,2013-06-20 20:26:00,
2013-06-20 16:31:00,86.7,79.9,30.07,NNW,338,1.0,4.0,80,0.00,,,0.72,meteohub,2013-06-20 20:31:00,
2013-06-20 16:36:00,88.5,80.1,30.08,NW,315,4.0,4.0,76,0.00,,,0.72,meteohub,2013-06-20 20:36:00,
2013-06-20 16:41:00,89.6,79.7,30.07,NE,45,2.0,4.0,73,0.00,,,0.72,meteohub,2013-06-20 20:41:00,
2013-06-20 16:46:00,90.1,79.9,30.06,NE,45,3.0,4.0,72,0.00,,,0.72,meteohub,2013-06-20 20:46:00,
2013-06-20 16:51:00,91.9,80.2,30.06,North,0,1.0,4.0,69,0.00,,,0.72,meteohub,2013-06-20 20:51:00,
2013-06-20 16:57:00,93.7,80.2,30.06,NW,315,1.0,4.0,65,0.00,,,0.72,meteohub,2013-06-20 20:57:00,
2013-06-20 17:02:00,96.4,79.7,30.06,NW,315,3.0,4.0,59,0.00,,,0.72,meteohub,2013-06-20 21:02:00,
2013-06-20 17:07:00,98.2,78.8,30.06,West,270,3.0,4.0,54,0.00,,,0.72,meteohub,2013-06-20 21:07:00,
2013-06-20 17:12:00,99.7,79.5,30.06,WSW,248,0.0,4.0,53,0.00,,,0.72,meteohub,2013-06-20 21:12:00,
2013-06-20 17:17:00,101.3,79.9,30.06,West,270,2.0,4.0,51,0.00,,,0.72,meteohub,2013-06-20 21:17:00,
2013-06-20 17:22:00,102.2,78.8,30.06,NW,315,3.0,4.0,48,0.00,,,0.72,meteohub,2013-06-20 21:22:00,
2013-06-20 17:27:00,102.2,78.1,30.06,NNW,338,1.0,3.0,47,0.00,,,0.72,meteohub,2013-06-20 21:27:00,
2013-06-20 17:32:00,102.7,77.4,30.06,SW,225,2.0,3.0,45,0.00,,,0.72,meteohub,2013-06-20 21:32:00,
2013-06-20 17:37:00,100.8,76.8,30.07,South,180,3.0,3.0,47,0.00,,,0.72,meteohub,2013-06-20 21:37:00,
2013-06-20 17:42:00,97.3,77.9,30.07,West,270,0.0,3.0,54,0.00,,,0.72,meteohub,2013-06-20 21:42:00,
2013-06-20 17:47:00,96.3,77.5,30.07,NW,315,2.0,3.0,55,0.00,,,0.72,meteohub,2013-06-20 21:47:00,
2013-06-20 17:52:00,95.5,77.9,30.08,SW,225,3.0,3.0,57,0.00,,,0.72,meteohub,2013-06-20 21:52:00,
2013-06-20 17:57:00,94.1,78.1,30.08,NW,315,2.0,3.0,60,0.00,,,0.72,meteohub,2013-06-20 21:57:00,
2013-06-20 18:02:00,93.9,79.0,30.08,West,270,1.0,3.0,62,0.00,,,0.72,meteohub,2013-06-20 22:02:00,
2013-06-20 18:07:00,93.7,76.6,30.09,West,270,2.0,3.0,58,0.00,,,0.72,meteohub,2013-06-20 22:07:00,
2013-06-20 18:12:00,93.7,78.8,30.08,NW,315,2.0,3.0,62,0.00,,,0.72,meteohub,2013-06-20 22:12:00,
2013-06-20 18:17:00,93.4,79.9,30.08,West,270,4.0,4.0,65,0.00,,,0.72,meteohub,2013-06-20 22:17:00,
2013-06-20 18:22:00,93.4,79.3,30.08,NW,315,2.0,4.0,64,0.00,,,0.72,meteohub,2013-06-20 22:22:00,
2013-06-20 18:27:00,93.4,79.3,30.08,NW,315,1.0,5.0,64,0.00,,,0.72,meteohub,2013-06-20 22:27:00,
2013-06-20 18:32:00,93.9,79.9,30.08,West,270,4.0,5.0,64,0.00,,,0.72,meteohub,2013-06-20 22:32:00,
2013-06-20 18:37:00,93.6,79.5,30.08,North,0,4.0,7.0,64,0.00,,,0.72,meteohub,2013-06-20 22:37:00,
2013-06-20 18:42:00,91.4,78.4,30.08,North,0,3.0,7.0,66,0.00,,,0.72,meteohub,2013-06-20 22:42:00,
2013-06-20 18:47:00,89.8,78.6,30.09,NW,315,3.0,7.0,70,0.00,,,0.72,meteohub,2013-06-20 22:47:00,
2013-06-20 18:52:00,88.9,78.6,30.08,NW,315,2.0,4.0,72,0.00,,,0.72,meteohub,2013-06-20 22:52:00,
2013-06-20 18:57:00,88.2,77.9,30.08,NW,315,3.0,4.0,72,0.00,,,0.72,meteohub,2013-06-20 22:57:00,
2013-06-20 19:02:00,87.8,78.1,30.08,NW,315,4.0,4.0,73,0.00,,,0.72,meteohub,2013-06-20 23:02:00,
2013-06-20 19:07:00,86.9,78.1,30.08,North,0,3.0,4.0,75,0.00,,,0.72,meteohub,2013-06-20 23:07:00,
2013-06-20 19:12:00,86.5,78.1,30.08,NE,45,3.0,4.0,76,0.00,,,0.72,meteohub,2013-06-20 23:12:00,
2013-06-20 19:17:00,86.2,77.7,30.09,NW,315,2.0,6.0,76,0.00,,,0.72,meteohub,2013-06-20 23:17:00,
2013-06-20 19:22:00,85.8,78.1,30.10,West,270,2.0,6.0,78,0.00,,,0.72,meteohub,2013-06-20 23:22:00,
2013-06-20 19:27:00,85.6,77.9,30.09,North,0,1.0,6.0,78,0.00,,,0.72,meteohub,2013-06-20 23:27:00,
2013-06-20 19:32:00,85.3,77.7,30.09,NE,45,2.0,6.0,78,0.00,,,0.72,meteohub,2013-06-20 23:32:00,
2013-06-20 19:37:00,84.9,77.4,30.10,NW,315,2.0,6.0,78,0.00,,,0.72,meteohub,2013-06-20 23:37:00,
2013-06-20 19:42:00,84.4,76.5,30.10,North,0,5.0,6.0,77,0.00,,,0.72,meteohub,2013-06-20 23:42:00,
2013-06-20 19:47:00,83.8,76.6,30.10,NNE,23,4.0,10.0,79,0.00,,,0.72,meteohub,2013-06-20 23:47:00,
2013-06-20 19:52:00,83.5,75.9,30.10,West,270,1.0,10.0,78,0.00,,,0.72,meteohub,2013-06-20 23:52:00,
2013-06-20 19:57:00,83.3,76.1,30.11,North,0,2.0,10.0,79,0.00,,,0.72,meteohub,2013-06-20 23:57:00,
2013-06-20 20:02:00,82.9,75.7,30.10,NW,315,4.0,5.0,79,0.00,,,0.72,meteohub,2013-06-21 00:02:00,
2013-06-20 20:07:00,82.8,75.6,30.11,North,0,3.0,5.0,79,0.00,,,0.72,meteohub,2013-06-21 00:07:00,
2013-06-20 20:12:00,82.4,75.2,30.11,WSW,248,4.0,4.0,79,0.00,,,0.72,meteohub,2013-06-21 00:12:00,
2013-06-20 20:17:00,82.0,75.6,30.11,NW,315,2.0,4.0,81,0.00,,,0.72,meteohub,2013-06-21 00:17:00,
2013-06-20 20:22:00,81.5,75.4,30.11,NW,315,2.0,4.0,82,0.00,,,0.72,meteohub,2013-06-21 00:22:00,
2013-06-20 20:27:00,81.1,75.2,30.11,South,180,3.0,4.0,82,0.00,,,0.72,meteohub,2013-06-21 00:27:00,
2013-06-20 20:32:00,81.0,75.0,30.12,WNW,293,4.0,4.0,82,0.00,,,0.72,meteohub,2013-06-21 00:32:00,
2013-06-20 20:37:00,80.6,74.7,30.12,SW,225,0.0,4.0,82,0.00,,,0.72,meteohub,2013-06-21 00:37:00,
2013-06-20 20:42:00,80.1,74.8,30.11,NW,315,2.0,4.0,84,0.00,,,0.72,meteohub,2013-06-21 00:42:00,
2013-06-20 20:47:00,79.9,74.7,30.11,West,270,2.0,4.0,84,0.00,,,0.72,meteohub,2013-06-21 00:47:00,
2013-06-20 20:52:00,79.7,74.8,30.11,North,0,2.0,3.0,85,0.00,,,0.72,meteohub,2013-06-21 00:52:00,
2013-06-20 20:57:00,79.3,74.5,30.11,SW,225,1.0,3.0,85,0.00,,,0.72,meteohub,2013-06-21 00:57:00,
2013-06-20 21:02:00,79.0,74.5,30.11,NW,315,1.0,3.0,86,0.00,,,0.72,meteohub,2013-06-21 01:02:00,
2013-06-20 21:07:00,78.8,74.3,30.11,WNW,293,0.0,4.0,86,0.00,,,0.72,meteohub,2013-06-21 01:07:00,
2013-06-20 21:12:00,78.6,74.5,30.12,West,270,2.0,4.0,87,0.00,,,0.72,meteohub,2013-06-21 01:12:00,
2013-06-20 21:17:00,78.4,74.7,30.12,West,270,2.0,4.0,88,0.00,,,0.72,meteohub,2013-06-21 01:17:00,
2013-06-20 21:22:00,78.3,74.5,30.12,North,0,0.0,2.0,88,0.00,,,0.72,meteohub,2013-06-21 01:22:00,
2013-06-20 21:27:00,78.1,74.3,30.12,North,0,0.0,2.0,88,0.00,,,0.72,meteohub,2013-06-21 01:27:00,
2013-06-20 21:32:00,78.1,74.5,30.11,North,0,0.0,2.0,89,0.00,,,0.72,meteohub,2013-06-21 01:32:00,
2013-06-20 21:37:00,77.7,74.5,30.11,West,270,1.0,0.0,90,0.00,,,0.72,meteohub,2013-06-21 01:37:00,
2013-06-20 21:42:00,77.7,74.8,30.12,NE,45,0.0,1.0,91,0.00,,,0.72,meteohub,2013-06-21 01:42:00,
2013-06-20 21:47:00,77.9,75.0,30.12,West,270,2.0,2.0,91,0.00,,,0.72,meteohub,2013-06-21 01:47:00,
2013-06-20 21:52:00,77.7,74.8,30.11,West,270,1.0,2.0,91,0.00,,,0.72,meteohub,2013-06-21 01:52:00,
2013-06-20 21:57:00,77.5,74.7,30.11,West,270,0.0,2.0,91,0.00,,,0.72,meteohub,2013-06-21 01:57:00,
2013-06-20 22:02:00,77.2,74.3,30.11,West,270,0.0,2.0,91,0.00,,,0.72,meteohub,2013-06-21 02:02:00,
2013-06-20 22:08:00,77.2,74.7,30.11,West,270,0.0,2.0,92,0.00,,,0.72,meteohub,2013-06-21 02:08:00,
2013-06-20 22:13:00,77.0,74.8,30.11,West,270,0.0,1.0,93,0.00,,,0.72,meteohub,2013-06-21 02:13:00,
2013-06-20 22:18:00,76.8,74.7,30.11,West,270,0.0,1.0,93,0.00,,,0.72,meteohub,2013-06-21 02:18:00,
2013-06-20 22:23:00,76.8,75.0,30.11,West,270,1.0,1.0,94,0.00,,,0.72,meteohub,2013-06-21 02:23:00,
2013-06-20 22:28:00,76.6,74.8,30.11,North,0,2.0,2.0,94,0.00,,,0.72,meteohub,2013-06-21 02:28:00,
2013-06-20 22:33:00,76.8,75.0,30.12,East,90,2.0,2.0,94,0.00,,,0.72,meteohub,2013-06-21 02:33:00,
2013-06-20 22:38:00,77.0,74.5,30.12,North,0,2.0,2.0,92,0.00,,,0.72,meteohub,2013-06-21 02:38:00,
2013-06-20 22:44:00,77.0,74.5,30.12,North,0,3.0,3.0,92,0.00,,,0.72,meteohub,2013-06-21 02:44:00,
2013-06-20 22:49:00,77.0,74.5,30.12,NE,45,2.0,3.0,92,0.00,,,0.72,meteohub,2013-06-21 02:49:00,
2013-06-20 22:54:00,77.0,74.5,30.12,North,0,2.0,3.0,92,0.00,,,0.72,meteohub,2013-06-21 02:54:00,
2013-06-20 22:59:00,77.0,74.1,30.12,SW,225,0.0,3.0,91,0.00,,,0.72,meteohub,2013-06-21 02:59:00,
2013-06-20 23:04:00,76.8,74.7,30.12,North,0,0.0,2.0,93,0.00,,,0.72,meteohub,2013-06-21 03:04:00,
2013-06-20 23:09:00,76.6,74.5,30.12,SW,225,0.0,2.0,93,0.00,,,0.72,meteohub,2013-06-21 03:09:00,
2013-06-20 23:15:00,76.5,73.9,30.12,North,0,1.0,2.0,92,0.00,,,0.72,meteohub,2013-06-21 03:15:00,
2013-06-20 23:20:00,76.3,74.1,30.12,NE,45,0.0,2.0,93,0.00,,,0.72,meteohub,2013-06-21 03:20:00,
2013-06-20 23:25:00,76.3,74.1,30.12,WNW,293,0.0,2.0,93,0.00,,,0.72,meteohub,2013-06-21 03:25:00,
2013-06-20 23:30:00,76.1,73.9,30.12,WNW,293,0.0,2.0,93,0.00,,,0.72,meteohub,2013-06-21 03:30:00,
2013-06-20 23:35:00,76.1,73.9,30.13,WNW,293,0.0,1.0,93,0.00,,,0.72,meteohub,2013-06-21 03:35:00,
2013-06-20 23:40:00,75.6,73.8,30.12,North,0,0.0,1.0,94,0.00,,,0.72,meteohub,2013-06-21 03:40:00,
2013-06-20 23:45:00,75.4,73.6,30.13,NW,315,0.0,1.0,94,0.00,,,0.72,meteohub,2013-06-21 03:45:00,
2013-06-20 23:51:00,75.6,73.8,30.13,WNW,293,2.0,2.0,94,0.00,,,0.72,meteohub,2013-06-21 03:51:00,
2013-06-20 23:56:00,75.6,73.9,30.13,North,0,0.0,2.0,95,0.00,,,0.72,meteohub,2013-06-21 03:56:00,